Year,Month,Day,Hour,Minute,Value (Times are PST for temperature in C)
2007,06,04,00,00,19.90
2007,06,04,00,01,19.90
2007,06,04,00,02,19.90
2007,06,04,00,03,19.80
2007,06,04,00,04,19.70
2007,06,04,00,05,19.70
2007,06,04,00,06,19.70
2007,06,04,00,07,19.60
2007,06,04,00,08,19.50
2007,06,04,00,09,19.50
2007,06,04,00,10,19.50
2007,06,04,00,11,19.50
2007,06,04,00,12,19.40
2007,06,04,00,13,19.40
2007,06,04,00,14,19.40
2007,06,04,00,15,19.40
2007,06,04,00,16,19.30
2007,06,04,00,17,19.30
2007,06,04,00,18,19.30
2007,06,04,00,19,19.20
2007,06,04,00,20,19.20
2007,06,04,00,21,19.20
2007,06,04,00,22,19.10
2007,06,04,00,23,19.10
2007,06,04,00,24,19.10
2007,06,04,00,25,19.10
2007,06,04,00,26,19.10
2007,06,04,00,27,19.10
2007,06,04,00,28,19.10
2007,06,04,00,29,19.10
2007,06,04,00,30,19.10
2007,06,04,00,31,19.10
2007,06,04,00,32,19.10
2007,06,04,00,33,19.10
2007,06,04,00,34,19.10
2007,06,04,00,35,19.10
2007,06,04,00,36,19.10
2007,06,04,00,37,19.10
2007,06,04,00,38,19.10
2007,06,04,00,39,19.10
2007,06,04,00,40,19.10
2007,06,04,00,41,19.10
2007,06,04,00,42,19.00
2007,06,04,00,43,18.90
2007,06,04,00,44,18.90
2007,06,04,00,45,18.90
2007,06,04,00,46,18.90
2007,06,04,00,47,18.90
2007,06,04,00,48,18.90
2007,06,04,00,49,18.90
2007,06,04,00,50,18.90
2007,06,04,00,51,18.80
2007,06,04,00,52,18.80
2007,06,04,00,53,18.70
2007,06,04,00,54,18.70
2007,06,04,00,55,18.60
2007,06,04,00,56,18.60
2007,06,04,00,57,18.60
2007,06,04,00,58,18.50
2007,06,04,00,59,18.50
2007,06,04,01,00,18.50
2007,06,04,01,01,18.40
2007,06,04,01,02,18.30
2007,06,04,01,03,18.20
2007,06,04,01,04,18.20
2007,06,04,01,05,18.00
2007,06,04,01,06,17.90
2007,06,04,01,07,17.90
2007,06,04,01,08,17.80
2007,06,04,01,09,17.70
2007,06,04,01,10,17.60
2007,06,04,01,11,17.60
2007,06,04,01,12,17.50
2007,06,04,01,13,17.50
2007,06,04,01,14,17.50
2007,06,04,01,15,17.40
2007,06,04,01,16,17.40
2007,06,04,01,17,17.40
2007,06,04,01,18,17.40
2007,06,04,01,19,17.40
2007,06,04,01,20,17.40
2007,06,04,01,21,17.40
2007,06,04,01,22,17.40
2007,06,04,01,23,17.30
2007,06,04,01,24,17.30
2007,06,04,01,25,17.30
2007,06,04,01,26,17.40
2007,06,04,01,27,17.40
2007,06,04,01,28,17.30
2007,06,04,01,29,17.30
2007,06,04,01,30,17.30
2007,06,04,01,31,17.30
2007,06,04,01,32,17.30
2007,06,04,01,33,17.30
2007,06,04,01,34,17.30
2007,06,04,01,35,17.30
2007,06,04,01,36,17.30
2007,06,04,01,37,17.30
2007,06,04,01,38,17.30
2007,06,04,01,39,17.30
2007,06,04,01,40,17.30
2007,06,04,01,41,17.30
2007,06,04,01,42,17.30
2007,06,04,01,43,17.30
2007,06,04,01,44,17.30
2007,06,04,01,45,17.30
2007,06,04,01,46,17.30
2007,06,04,01,47,17.30
2007,06,04,01,48,17.30
2007,06,04,01,49,17.30
2007,06,04,01,50,17.30
2007,06,04,01,51,17.20
2007,06,04,01,52,17.10
2007,06,04,01,53,17.10
2007,06,04,01,54,17.00
2007,06,04,01,55,17.00
2007,06,04,01,56,16.90
2007,06,04,01,57,16.90
2007,06,04,01,58,16.80
2007,06,04,01,59,16.70
2007,06,04,02,00,16.70
2007,06,04,02,01,16.70
2007,06,04,02,02,16.60
2007,06,04,02,03,16.60
2007,06,04,02,04,16.60
2007,06,04,02,05,16.60
2007,06,04,02,06,16.60
2007,06,04,02,07,16.60
2007,06,04,02,08,16.60
2007,06,04,02,09,16.60
2007,06,04,02,10,16.60
2007,06,04,02,11,16.60
2007,06,04,02,12,16.60
2007,06,04,02,13,16.60
2007,06,04,02,14,16.60
2007,06,04,02,15,16.70
2007,06,04,02,16,16.70
2007,06,04,02,17,16.60
2007,06,04,02,18,16.60
2007,06,04,02,19,16.60
2007,06,04,02,20,16.50
2007,06,04,02,21,16.40
2007,06,04,02,22,16.40
2007,06,04,02,23,16.40
2007,06,04,02,24,16.40
2007,06,04,02,25,16.40
2007,06,04,02,26,16.40
2007,06,04,02,27,16.40
2007,06,04,02,28,16.40
2007,06,04,02,29,16.30
2007,06,04,02,30,16.30
2007,06,04,02,31,16.30
2007,06,04,02,32,16.30
2007,06,04,02,33,16.30
2007,06,04,02,34,16.20
2007,06,04,02,35,16.20
2007,06,04,02,36,16.20
2007,06,04,02,37,16.20
2007,06,04,02,38,16.20
2007,06,04,02,39,16.10
2007,06,04,02,40,16.10
2007,06,04,02,41,15.90
2007,06,04,02,42,15.80
2007,06,04,02,43,15.80
2007,06,04,02,44,15.80
2007,06,04,02,45,15.60
2007,06,04,02,46,15.50
2007,06,04,02,47,15.40
2007,06,04,02,48,15.30
2007,06,04,02,49,15.30
2007,06,04,02,50,15.20
2007,06,04,02,51,15.20
2007,06,04,02,52,15.10
2007,06,04,02,53,15.10
2007,06,04,02,54,15.00
2007,06,04,02,55,15.00
2007,06,04,02,56,14.90
2007,06,04,02,57,14.90
2007,06,04,02,58,14.90
2007,06,04,02,59,14.90
2007,06,04,03,00,14.80
2007,06,04,03,01,14.80
2007,06,04,03,02,14.80
2007,06,04,03,03,14.80
2007,06,04,03,04,14.80
2007,06,04,03,05,14.70
2007,06,04,03,06,14.70
2007,06,04,03,07,14.60
2007,06,04,03,08,14.60
2007,06,04,03,09,14.60
2007,06,04,03,10,14.60
2007,06,04,03,11,14.60
2007,06,04,03,12,14.50
2007,06,04,03,13,14.50
2007,06,04,03,14,14.50
2007,06,04,03,15,14.50
2007,06,04,03,16,14.50
2007,06,04,03,17,14.50
2007,06,04,03,18,14.50
2007,06,04,03,19,14.40
2007,06,04,03,20,14.40
2007,06,04,03,21,14.40
2007,06,04,03,22,14.40
2007,06,04,03,23,14.40
2007,06,04,03,24,14.40
2007,06,04,03,25,14.40
2007,06,04,03,26,14.40
2007,06,04,03,27,14.40
2007,06,04,03,28,14.40
2007,06,04,03,29,14.40
2007,06,04,03,30,14.40
2007,06,04,03,31,14.40
2007,06,04,03,32,14.40
2007,06,04,03,33,14.40
2007,06,04,03,34,14.40
2007,06,04,03,35,14.40
2007,06,04,03,36,14.40
2007,06,04,03,37,14.40
2007,06,04,03,38,14.50
2007,06,04,03,39,14.40
2007,06,04,03,40,14.40
2007,06,04,03,41,14.40
2007,06,04,03,42,14.40
2007,06,04,03,43,14.50
2007,06,04,03,44,14.50
2007,06,04,03,45,14.50
2007,06,04,03,46,14.50
2007,06,04,03,47,14.50
2007,06,04,03,48,14.50
2007,06,04,03,49,14.50
2007,06,04,03,50,14.50
2007,06,04,03,51,14.50
2007,06,04,03,52,14.50
2007,06,04,03,53,14.50
2007,06,04,03,54,14.50
2007,06,04,03,55,14.60
2007,06,04,03,56,14.60
2007,06,04,03,57,14.60
2007,06,04,03,58,14.60
2007,06,04,03,59,14.60
2007,06,04,04,00,14.60
2007,06,04,04,01,14.60
2007,06,04,04,02,14.60
2007,06,04,04,03,14.60
2007,06,04,04,04,14.60
2007,06,04,04,05,14.60
2007,06,04,04,06,14.60
2007,06,04,04,07,14.60
2007,06,04,04,08,14.60
2007,06,04,04,09,14.60
2007,06,04,04,10,14.60
2007,06,04,04,11,14.60
2007,06,04,04,12,14.60
2007,06,04,04,13,14.60
2007,06,04,04,14,14.60
2007,06,04,04,15,14.60
2007,06,04,04,16,14.60
2007,06,04,04,17,14.60
2007,06,04,04,18,14.60
2007,06,04,04,19,14.60
2007,06,04,04,20,14.60
2007,06,04,04,21,14.60
2007,06,04,04,22,14.70
2007,06,04,04,23,14.70
2007,06,04,04,24,14.70
2007,06,04,04,25,14.70
2007,06,04,04,26,14.70
2007,06,04,04,27,14.80
2007,06,04,04,28,14.80
2007,06,04,04,29,14.80
2007,06,04,04,30,14.80
2007,06,04,04,31,14.80
2007,06,04,04,32,14.80
2007,06,04,04,33,14.80
2007,06,04,04,34,14.80
2007,06,04,04,35,14.80
2007,06,04,04,36,14.80
2007,06,04,04,37,14.80
2007,06,04,04,38,14.80
2007,06,04,04,39,14.80
2007,06,04,04,40,14.80
2007,06,04,04,41,14.80
2007,06,04,04,42,14.80
2007,06,04,04,43,14.80
2007,06,04,04,44,14.80
2007,06,04,04,45,14.80
2007,06,04,04,46,14.80
2007,06,04,04,47,14.80
2007,06,04,04,48,14.80
2007,06,04,04,49,14.80
2007,06,04,04,50,14.80
2007,06,04,04,51,14.80
2007,06,04,04,52,14.80
2007,06,04,04,53,14.80
2007,06,04,04,54,14.80
2007,06,04,04,55,14.70
2007,06,04,04,56,14.70
2007,06,04,04,57,14.70
2007,06,04,04,58,14.70
2007,06,04,04,59,14.70
2007,06,04,05,00,14.70
2007,06,04,05,01,14.70
2007,06,04,05,02,14.70
2007,06,04,05,03,14.70
2007,06,04,05,04,14.70
2007,06,04,05,05,14.70
2007,06,04,05,06,14.70
2007,06,04,05,07,14.70
2007,06,04,05,08,14.70
2007,06,04,05,09,14.70
2007,06,04,05,10,14.80
2007,06,04,05,11,14.80
2007,06,04,05,12,14.80
2007,06,04,05,13,14.80
2007,06,04,05,14,14.80
2007,06,04,05,15,14.80
2007,06,04,05,16,14.80
2007,06,04,05,17,14.80
2007,06,04,05,18,14.80
2007,06,04,05,19,14.80
2007,06,04,05,20,14.80
2007,06,04,05,21,14.80
2007,06,04,05,22,14.80
2007,06,04,05,23,14.80
2007,06,04,05,24,14.80
2007,06,04,05,25,14.80
2007,06,04,05,26,14.80
2007,06,04,05,27,14.80
2007,06,04,05,28,14.80
2007,06,04,05,29,14.80
2007,06,04,05,30,14.80
2007,06,04,05,31,14.80
2007,06,04,05,32,14.80
2007,06,04,05,33,14.80
2007,06,04,05,34,14.70
2007,06,04,05,35,14.70
2007,06,04,05,36,14.70
2007,06,04,05,37,14.70
2007,06,04,05,38,14.70
2007,06,04,05,39,14.70
2007,06,04,05,40,14.70
2007,06,04,05,41,14.70
2007,06,04,05,42,14.70
2007,06,04,05,43,14.70
2007,06,04,05,44,14.70
2007,06,04,05,45,14.70
2007,06,04,05,46,14.70
2007,06,04,05,47,14.70
2007,06,04,05,48,14.70
2007,06,04,05,49,14.70
2007,06,04,05,50,14.70
2007,06,04,05,51,14.70
2007,06,04,05,52,14.70
2007,06,04,05,53,14.70
2007,06,04,05,54,14.70
2007,06,04,05,55,14.70
2007,06,04,05,56,14.70
2007,06,04,05,57,14.70
2007,06,04,05,58,14.70
2007,06,04,05,59,14.70
2007,06,04,06,00,14.70
2007,06,04,06,01,14.70
2007,06,04,06,02,14.70
2007,06,04,06,03,14.80
2007,06,04,06,04,14.80
2007,06,04,06,05,14.80
2007,06,04,06,06,14.80
2007,06,04,06,07,14.80
2007,06,04,06,08,14.80
2007,06,04,06,09,14.80
2007,06,04,06,10,14.80
2007,06,04,06,11,14.90
2007,06,04,06,12,14.90
2007,06,04,06,13,14.90
2007,06,04,06,14,15.00
2007,06,04,06,15,15.00
2007,06,04,06,16,15.00
2007,06,04,06,17,15.00
2007,06,04,06,18,15.00
2007,06,04,06,19,15.00
2007,06,04,06,20,15.10
2007,06,04,06,21,15.10
2007,06,04,06,22,15.10
2007,06,04,06,23,15.10
2007,06,04,06,24,15.10
2007,06,04,06,25,15.10
2007,06,04,06,26,15.10
2007,06,04,06,27,15.10
2007,06,04,06,28,15.10
2007,06,04,06,29,15.10
2007,06,04,06,30,15.10
2007,06,04,06,31,15.10
2007,06,04,06,32,15.10
2007,06,04,06,33,15.10
2007,06,04,06,34,15.10
2007,06,04,06,35,15.10
2007,06,04,06,36,15.10
2007,06,04,06,37,15.10
2007,06,04,06,38,15.20
2007,06,04,06,39,15.20
2007,06,04,06,40,15.20
2007,06,04,06,41,15.20
2007,06,04,06,42,15.20
2007,06,04,06,43,15.20
2007,06,04,06,44,15.20
2007,06,04,06,45,15.20
2007,06,04,06,46,15.20
2007,06,04,06,47,15.20
2007,06,04,06,48,15.20
2007,06,04,06,49,15.20
2007,06,04,06,50,15.20
2007,06,04,06,51,15.20
2007,06,04,06,52,15.20
2007,06,04,06,53,15.20
2007,06,04,06,54,15.20
2007,06,04,06,55,15.30
2007,06,04,06,56,15.30
2007,06,04,06,57,15.30
2007,06,04,06,58,15.30
2007,06,04,06,59,15.30
2007,06,04,07,00,15.30
2007,06,04,07,01,15.30
2007,06,04,07,02,15.30
2007,06,04,07,03,15.40
2007,06,04,07,04,15.40
2007,06,04,07,05,15.40
2007,06,04,07,06,15.40
2007,06,04,07,07,15.40
2007,06,04,07,08,15.40
2007,06,04,07,09,15.40
2007,06,04,07,10,15.50
2007,06,04,07,11,15.50
2007,06,04,07,12,15.50
2007,06,04,07,13,15.50
2007,06,04,07,14,15.50
2007,06,04,07,15,15.60
2007,06,04,07,16,15.60
2007,06,04,07,17,15.60
2007,06,04,07,18,15.60
2007,06,04,07,19,15.60
2007,06,04,07,20,15.60
2007,06,04,07,21,15.70
2007,06,04,07,22,15.70
2007,06,04,07,23,15.70
2007,06,04,07,24,15.70
2007,06,04,07,25,15.70
2007,06,04,07,26,15.70
2007,06,04,07,27,15.70
2007,06,04,07,28,15.70
2007,06,04,07,29,15.70
2007,06,04,07,30,15.70
2007,06,04,07,31,15.70
2007,06,04,07,32,15.70
2007,06,04,07,33,15.70
2007,06,04,07,34,15.70
2007,06,04,07,35,15.70
2007,06,04,07,36,15.80
2007,06,04,07,37,15.80
2007,06,04,07,38,15.80
2007,06,04,07,39,15.80
2007,06,04,07,40,15.80
2007,06,04,07,41,15.80
2007,06,04,07,42,15.80
2007,06,04,07,43,15.80
2007,06,04,07,44,15.90
2007,06,04,07,45,16.00
2007,06,04,07,46,16.10
2007,06,04,07,47,16.10
2007,06,04,07,48,16.20
2007,06,04,07,49,16.30
2007,06,04,07,50,16.30
2007,06,04,07,51,16.40
2007,06,04,07,52,16.40
2007,06,04,07,53,16.40
2007,06,04,07,54,16.40
2007,06,04,07,55,16.40
2007,06,04,07,56,16.40
2007,06,04,07,57,16.40
2007,06,04,07,58,16.40
2007,06,04,07,59,16.40
2007,06,04,08,00,16.40
2007,06,04,08,01,16.40
2007,06,04,08,02,16.40
2007,06,04,08,03,16.40
2007,06,04,08,04,16.50
2007,06,04,08,05,16.60
2007,06,04,08,06,16.60
2007,06,04,08,07,16.60
2007,06,04,08,08,16.60
2007,06,04,08,09,16.70
2007,06,04,08,10,16.70
2007,06,04,08,11,16.70
2007,06,04,08,12,16.80
2007,06,04,08,13,16.80
2007,06,04,08,14,16.90
2007,06,04,08,15,17.00
2007,06,04,08,16,17.00
2007,06,04,08,17,17.00
2007,06,04,08,18,17.10
2007,06,04,08,19,17.20
2007,06,04,08,20,17.20
2007,06,04,08,21,17.20
2007,06,04,08,22,17.30
2007,06,04,08,23,17.30
2007,06,04,08,24,17.30
2007,06,04,08,25,17.30
2007,06,04,08,26,17.30
2007,06,04,08,27,17.30
2007,06,04,08,28,17.30
2007,06,04,08,29,17.30
2007,06,04,08,30,17.30
2007,06,04,08,31,17.30
2007,06,04,08,32,17.30
2007,06,04,08,33,17.30
2007,06,04,08,34,17.30
2007,06,04,08,35,17.30
2007,06,04,08,36,17.30
2007,06,04,08,37,17.30
2007,06,04,08,38,17.30
2007,06,04,08,39,17.30
2007,06,04,08,40,17.30
2007,06,04,08,41,17.30
2007,06,04,08,42,17.30
2007,06,04,08,43,17.30
2007,06,04,08,44,17.30
2007,06,04,08,45,17.30
2007,06,04,08,46,17.30
2007,06,04,08,47,17.30
2007,06,04,08,48,17.30
2007,06,04,08,49,17.30
2007,06,04,08,50,17.20
2007,06,04,08,51,17.20
2007,06,04,08,52,17.20
2007,06,04,08,53,17.20
2007,06,04,08,54,17.30
2007,06,04,08,55,17.30
2007,06,04,08,56,17.30
2007,06,04,08,57,17.30
2007,06,04,08,58,17.30
2007,06,04,08,59,17.40
2007,06,04,09,00,17.40
2007,06,04,09,01,17.40
2007,06,04,09,02,17.40
2007,06,04,09,03,17.50
2007,06,04,09,04,17.50
2007,06,04,09,05,17.50
2007,06,04,09,06,17.50
2007,06,04,09,07,17.50
2007,06,04,09,08,17.50
2007,06,04,09,09,17.50
2007,06,04,09,10,17.50
2007,06,04,09,11,17.50
2007,06,04,09,12,17.50
2007,06,04,09,13,17.60
2007,06,04,09,14,17.60
2007,06,04,09,15,17.60
2007,06,04,09,16,17.60
2007,06,04,09,17,17.60
2007,06,04,09,18,17.60
2007,06,04,09,19,17.50
2007,06,04,09,20,17.50
2007,06,04,09,21,17.50
2007,06,04,09,22,17.50
2007,06,04,09,23,17.50
2007,06,04,09,24,17.50
2007,06,04,09,25,17.50
2007,06,04,09,26,17.60
2007,06,04,09,27,17.60
2007,06,04,09,28,17.60
2007,06,04,09,29,17.60
2007,06,04,09,30,17.60
2007,06,04,09,31,17.60
2007,06,04,09,32,17.60
2007,06,04,09,33,17.70
2007,06,04,09,34,17.70
2007,06,04,09,35,17.70
2007,06,04,09,36,17.70
2007,06,04,09,37,17.70
2007,06,04,09,38,17.60
2007,06,04,09,39,17.50
2007,06,04,09,40,17.50
2007,06,04,09,41,17.40
2007,06,04,09,42,17.30
2007,06,04,09,43,17.30
2007,06,04,09,44,17.20
2007,06,04,09,45,17.10
2007,06,04,09,46,17.10
2007,06,04,09,47,17.00
2007,06,04,09,48,16.90
2007,06,04,09,49,16.90
2007,06,04,09,50,16.90
2007,06,04,09,51,16.80
2007,06,04,09,52,16.80
2007,06,04,09,53,16.70
2007,06,04,09,54,16.70
2007,06,04,09,55,16.70
2007,06,04,09,56,16.70
2007,06,04,09,57,16.70
2007,06,04,09,58,16.60
2007,06,04,09,59,16.60
2007,06,04,10,00,16.60
2007,06,04,10,01,16.40
2007,06,04,10,02,16.40
2007,06,04,10,03,16.40
2007,06,04,10,04,16.40
2007,06,04,10,05,16.40
2007,06,04,10,06,16.40
2007,06,04,10,07,16.40
2007,06,04,10,08,16.40
2007,06,04,10,09,16.40
2007,06,04,10,10,16.40
2007,06,04,10,11,16.40
2007,06,04,10,12,16.40
2007,06,04,10,13,16.40
2007,06,04,10,14,16.40
2007,06,04,10,15,16.40
2007,06,04,10,16,16.40
2007,06,04,10,17,16.40
2007,06,04,10,18,16.40
2007,06,04,10,19,16.40
2007,06,04,10,20,16.40
2007,06,04,10,21,16.40
2007,06,04,10,22,16.40
2007,06,04,10,23,16.40
2007,06,04,10,24,16.40
2007,06,04,10,25,16.40
2007,06,04,10,26,16.40
2007,06,04,10,27,16.30
2007,06,04,10,28,16.30
2007,06,04,10,29,16.30
2007,06,04,10,30,16.20
2007,06,04,10,31,16.10
2007,06,04,10,32,16.10
2007,06,04,10,33,16.10
2007,06,04,10,34,16.10
2007,06,04,10,35,16.10
2007,06,04,10,36,16.10
2007,06,04,10,37,16.10
2007,06,04,10,38,16.10
2007,06,04,10,39,16.10
2007,06,04,10,40,16.00
2007,06,04,10,41,15.90
2007,06,04,10,42,15.90
2007,06,04,10,43,15.90
2007,06,04,10,44,15.90
2007,06,04,10,45,15.90
2007,06,04,10,46,15.90
2007,06,04,10,47,15.90
2007,06,04,10,48,15.80
2007,06,04,10,49,15.80
2007,06,04,10,50,15.80
2007,06,04,10,51,15.80
2007,06,04,10,52,15.80
2007,06,04,10,53,15.80
2007,06,04,10,54,15.80
2007,06,04,10,55,15.80
2007,06,04,10,56,15.80
2007,06,04,10,57,15.80
2007,06,04,10,58,15.80
2007,06,04,10,59,15.80
2007,06,04,11,00,15.80
2007,06,04,11,01,15.80
2007,06,04,11,02,15.80
2007,06,04,11,03,15.70
2007,06,04,11,04,15.70
2007,06,04,11,05,15.70
2007,06,04,11,06,15.70
2007,06,04,11,07,15.70
2007,06,04,11,08,15.70
2007,06,04,11,09,15.70
2007,06,04,11,10,15.70
2007,06,04,11,11,15.70
2007,06,04,11,12,15.70
2007,06,04,11,13,15.70
2007,06,04,11,14,15.60
2007,06,04,11,15,15.60
2007,06,04,11,16,15.60
2007,06,04,11,17,15.60
2007,06,04,11,18,15.50
2007,06,04,11,19,15.40
2007,06,04,11,20,15.20
2007,06,04,11,21,15.10
2007,06,04,11,22,14.90
2007,06,04,11,23,14.80
2007,06,04,11,24,14.60
2007,06,04,11,25,14.50
2007,06,04,11,26,14.40
2007,06,04,11,27,14.40
2007,06,04,11,28,14.30
2007,06,04,11,29,14.30
2007,06,04,11,30,14.20
2007,06,04,11,31,14.20
2007,06,04,11,32,14.20
2007,06,04,11,33,14.20
2007,06,04,11,34,14.20
2007,06,04,11,35,14.20
2007,06,04,11,36,14.20
2007,06,04,11,37,14.20
2007,06,04,11,38,14.10
2007,06,04,11,39,14.10
2007,06,04,11,40,14.10
2007,06,04,11,41,14.10
2007,06,04,11,42,14.10
2007,06,04,11,43,14.10
2007,06,04,11,44,14.10
2007,06,04,11,45,14.10
2007,06,04,11,46,14.10
2007,06,04,11,47,14.20
2007,06,04,11,48,14.20
2007,06,04,11,49,14.20
2007,06,04,11,50,14.20
2007,06,04,11,51,14.20
2007,06,04,11,52,14.20
2007,06,04,11,53,14.20
2007,06,04,11,54,14.30
2007,06,04,11,55,14.30
2007,06,04,11,56,14.30
2007,06,04,11,57,14.30
2007,06,04,11,58,14.30
2007,06,04,11,59,14.30
2007,06,04,12,00,14.30
2007,06,04,12,01,14.30
2007,06,04,12,02,14.30
2007,06,04,12,03,14.30
2007,06,04,12,04,14.30
2007,06,04,12,05,14.20
2007,06,04,12,06,14.20
2007,06,04,12,07,14.20
2007,06,04,12,08,14.20
2007,06,04,12,09,14.20
2007,06,04,12,10,14.20
2007,06,04,12,11,14.20
2007,06,04,12,12,14.20
2007,06,04,12,13,14.20
2007,06,04,12,14,14.10
2007,06,04,12,15,13.90
2007,06,04,12,16,13.70
2007,06,04,12,17,13.60
2007,06,04,12,18,13.50
2007,06,04,12,19,13.40
2007,06,04,12,20,13.30
2007,06,04,12,21,13.30
2007,06,04,12,22,13.20
2007,06,04,12,23,13.20
2007,06,04,12,24,13.10
2007,06,04,12,25,13.00
2007,06,04,12,26,13.00
2007,06,04,12,27,12.90
2007,06,04,12,28,12.80
2007,06,04,12,29,12.80
2007,06,04,12,30,12.80
2007,06,04,12,31,12.80
2007,06,04,12,32,12.80
2007,06,04,12,33,12.80
2007,06,04,12,34,12.90
2007,06,04,12,35,13.00
2007,06,04,12,36,13.00
2007,06,04,12,37,13.00
2007,06,04,12,38,13.10
2007,06,04,12,39,13.10
2007,06,04,12,40,13.10
2007,06,04,12,41,13.10
2007,06,04,12,42,13.10
2007,06,04,12,43,13.10
2007,06,04,12,44,13.10
2007,06,04,12,45,13.20
2007,06,04,12,46,13.20
2007,06,04,12,47,13.20
2007,06,04,12,48,13.20
2007,06,04,12,49,13.30
2007,06,04,12,50,13.30
2007,06,04,12,51,13.30
2007,06,04,12,52,13.30
2007,06,04,12,53,13.30
2007,06,04,12,54,13.30
2007,06,04,12,55,13.30
2007,06,04,12,56,13.30
2007,06,04,12,57,13.30
2007,06,04,12,58,13.30
2007,06,04,12,59,13.40
2007,06,04,13,00,13.40
2007,06,04,13,01,13.40
2007,06,04,13,02,13.50
2007,06,04,13,03,13.50
2007,06,04,13,04,13.50
2007,06,04,13,05,13.60
2007,06,04,13,06,13.60
2007,06,04,13,07,13.60
2007,06,04,13,08,13.70
2007,06,04,13,09,13.70
2007,06,04,13,10,13.70
2007,06,04,13,11,13.70
2007,06,04,13,12,13.80
2007,06,04,13,13,13.80
2007,06,04,13,14,13.90
2007,06,04,13,15,13.90
2007,06,04,13,16,13.90
2007,06,04,13,17,13.90
2007,06,04,13,18,13.90
2007,06,04,13,19,13.90
2007,06,04,13,20,14.00
2007,06,04,13,21,14.00
2007,06,04,13,22,14.00
2007,06,04,13,23,14.10
2007,06,04,13,24,14.10
2007,06,04,13,25,14.20
2007,06,04,13,26,14.20
2007,06,04,13,27,14.20
2007,06,04,13,28,14.20
2007,06,04,13,29,14.20
2007,06,04,13,30,14.30
2007,06,04,13,31,14.30
2007,06,04,13,32,14.30
2007,06,04,13,33,14.40
2007,06,04,13,34,14.40
2007,06,04,13,35,14.50
2007,06,04,13,36,14.50
2007,06,04,13,37,14.60
2007,06,04,13,38,14.60
2007,06,04,13,39,14.70
2007,06,04,13,40,14.70
2007,06,04,13,41,14.70
2007,06,04,13,42,14.80
2007,06,04,13,43,14.80
2007,06,04,13,44,14.80
2007,06,04,13,45,14.80
2007,06,04,13,46,14.70
2007,06,04,13,47,14.70
2007,06,04,13,48,14.70
2007,06,04,13,49,14.70
2007,06,04,13,50,14.70
2007,06,04,13,51,14.60
2007,06,04,13,52,14.60
2007,06,04,13,53,14.60
2007,06,04,13,54,14.60
2007,06,04,13,55,14.60
2007,06,04,13,56,14.60
2007,06,04,13,57,14.60
2007,06,04,13,58,14.60
2007,06,04,13,59,14.70
2007,06,04,14,00,14.70
2007,06,04,14,01,14.70
2007,06,04,14,02,14.70
2007,06,04,14,03,14.80
2007,06,04,14,04,14.80
2007,06,04,14,05,14.80
2007,06,04,14,06,14.80
2007,06,04,14,07,14.90
2007,06,04,14,08,14.90
2007,06,04,14,09,15.00
2007,06,04,14,10,15.00
2007,06,04,14,11,15.10
2007,06,04,14,12,15.10
2007,06,04,14,13,15.20
2007,06,04,14,14,15.30
2007,06,04,14,15,15.30
2007,06,04,14,16,15.30
2007,06,04,14,17,15.30
2007,06,04,14,18,15.30
2007,06,04,14,19,15.30
2007,06,04,14,20,15.30
2007,06,04,14,21,15.30
2007,06,04,14,22,15.30
2007,06,04,14,23,15.30
2007,06,04,14,24,15.30
2007,06,04,14,25,15.40
2007,06,04,14,26,15.40
2007,06,04,14,27,15.40
2007,06,04,14,28,15.30
2007,06,04,14,29,15.40
2007,06,04,14,30,15.40
2007,06,04,14,31,15.50
2007,06,04,14,32,15.50
2007,06,04,14,33,15.50
2007,06,04,14,34,15.70
2007,06,04,14,35,15.80
2007,06,04,14,36,15.80
2007,06,04,14,37,15.80
2007,06,04,14,38,15.80
2007,06,04,14,39,15.90
2007,06,04,14,40,15.90
2007,06,04,14,41,16.00
2007,06,04,14,42,16.00
2007,06,04,14,43,16.10
2007,06,04,14,44,16.00
2007,06,04,14,45,15.90
2007,06,04,14,46,15.90
2007,06,04,14,47,16.00
2007,06,04,14,48,16.10
2007,06,04,14,49,16.10
2007,06,04,14,50,16.20
2007,06,04,14,51,16.30
2007,06,04,14,52,16.30
2007,06,04,14,53,16.40
2007,06,04,14,54,16.40
2007,06,04,14,55,16.40
2007,06,04,14,56,16.40
2007,06,04,14,57,16.40
2007,06,04,14,58,16.40
2007,06,04,14,59,16.40
2007,06,04,15,00,16.40
2007,06,04,15,01,16.40
2007,06,04,15,02,16.40
2007,06,04,15,03,16.40
2007,06,04,15,04,16.40
2007,06,04,15,05,16.40
2007,06,04,15,06,16.40
2007,06,04,15,07,16.30
2007,06,04,15,08,16.40
2007,06,04,15,09,16.40
2007,06,04,15,10,16.40
2007,06,04,15,11,16.40
2007,06,04,15,12,16.40
2007,06,04,15,13,16.40
2007,06,04,15,14,16.40
2007,06,04,15,15,16.40
2007,06,04,15,16,16.40
2007,06,04,15,17,16.40
2007,06,04,15,18,16.40
2007,06,04,15,19,16.40
2007,06,04,15,20,16.40
2007,06,04,15,21,16.40
2007,06,04,15,22,16.40
2007,06,04,15,23,16.40
2007,06,04,15,24,16.40
2007,06,04,15,25,16.40
2007,06,04,15,26,16.40
2007,06,04,15,27,16.40
2007,06,04,15,28,16.40
2007,06,04,15,29,16.40
2007,06,04,15,30,16.40
2007,06,04,15,31,16.40
2007,06,04,15,32,16.40
2007,06,04,15,33,16.60
2007,06,04,15,34,16.60
2007,06,04,15,35,16.60
2007,06,04,15,36,16.60
2007,06,04,15,37,16.70
2007,06,04,15,38,16.70
2007,06,04,15,39,16.70
2007,06,04,15,40,16.70
2007,06,04,15,41,16.70
2007,06,04,15,42,16.80
2007,06,04,15,43,16.80
2007,06,04,15,44,16.80
2007,06,04,15,45,16.90
2007,06,04,15,46,16.90
2007,06,04,15,47,16.90
2007,06,04,15,48,17.00
2007,06,04,15,49,17.00
2007,06,04,15,50,17.00
2007,06,04,15,51,17.10
2007,06,04,15,52,17.10
2007,06,04,15,53,17.10
2007,06,04,15,54,17.10
2007,06,04,15,55,17.00
2007,06,04,15,56,17.00
2007,06,04,15,57,17.00
2007,06,04,15,58,16.90
2007,06,04,15,59,16.90
2007,06,04,16,00,16.90
2007,06,04,16,01,16.80
2007,06,04,16,02,16.80
2007,06,04,16,03,16.70
2007,06,04,16,04,16.70
2007,06,04,16,05,16.70
2007,06,04,16,06,16.70
2007,06,04,16,07,16.70
2007,06,04,16,08,16.70
2007,06,04,16,09,16.70
2007,06,04,16,10,16.70
2007,06,04,16,11,16.70
2007,06,04,16,12,16.80
2007,06,04,16,13,16.80
2007,06,04,16,14,16.90
2007,06,04,16,15,16.90
2007,06,04,16,16,16.90
2007,06,04,16,17,16.90
2007,06,04,16,18,17.00
2007,06,04,16,19,17.00
2007,06,04,16,20,17.00
2007,06,04,16,21,16.90
2007,06,04,16,22,16.90
2007,06,04,16,23,16.80
2007,06,04,16,24,16.90
2007,06,04,16,25,16.90
2007,06,04,16,26,16.90
2007,06,04,16,27,17.00
2007,06,04,16,28,17.00
2007,06,04,16,29,17.00
2007,06,04,16,30,16.90
2007,06,04,16,31,16.90
2007,06,04,16,32,16.90
2007,06,04,16,33,16.90
2007,06,04,16,34,16.90
2007,06,04,16,35,16.90
2007,06,04,16,36,16.90
2007,06,04,16,37,16.90
2007,06,04,16,38,16.90
2007,06,04,16,39,16.90
2007,06,04,16,40,16.90
2007,06,04,16,41,16.90
2007,06,04,16,42,16.90
2007,06,04,16,43,16.90
2007,06,04,16,44,16.90
2007,06,04,16,45,16.90
2007,06,04,16,46,16.90
2007,06,04,16,47,17.00
2007,06,04,16,48,17.00
2007,06,04,16,49,17.00
2007,06,04,16,50,17.10
2007,06,04,16,51,17.10
2007,06,04,16,52,17.10
2007,06,04,16,53,17.10
2007,06,04,16,54,17.20
2007,06,04,16,55,17.20
2007,06,04,16,56,17.20
2007,06,04,16,57,17.20
2007,06,04,16,58,17.20
2007,06,04,16,59,17.20
2007,06,04,17,00,17.20
2007,06,04,17,01,17.20
2007,06,04,17,02,17.20
2007,06,04,17,03,17.20
2007,06,04,17,04,17.20
2007,06,04,17,05,17.20
2007,06,04,17,06,17.10
2007,06,04,17,07,17.10
2007,06,04,17,08,17.10
2007,06,04,17,09,17.10
2007,06,04,17,10,17.10
2007,06,04,17,11,17.10
2007,06,04,17,12,17.10
2007,06,04,17,13,17.10
2007,06,04,17,14,17.10
2007,06,04,17,15,17.10
2007,06,04,17,16,17.10
2007,06,04,17,17,17.10
2007,06,04,17,18,17.10
2007,06,04,17,19,17.10